CW2274 Weather Reports


time (UTC)temp
C
wind
direction
speed
KPH
gust
KPH
rain 1hr
cm
rain 24hr
cm
rain mn
cm
humidity
%
barometer
mb
20260504193023 27 159 4.8 22.5 0.00 0.00 0.00 17 1014.0
20260504192519 27 196 8.0 22.5 0.00 0.00 0.00 18 1014.1
20260504192014 28 215 8.0 19.3 0.00 0.00 0.00 17 1014.3
20260504191529 27 214 9.7 16.1 0.00 0.00 0.00 18 1014.1
20260504191024 27 234 3.2 24.1 0.00 0.00 0.00 19 1014.3
20260504190520 27 135 6.4 24.1 0.00 0.00 0.00 19 1014.3
20260504190027 27 105 4.8 11.3 0.00 0.00 0.00 19 1014.2
20260504185532 27 244 3.2 17.7 0.00 0.00 0.00 19 1014.1
20260504185028 27 200 9.7 17.7 0.00 0.00 0.00 19 1014.6
20260504184524 26 212 6.4 19.3 0.00 0.00 0.00 19 1014.6
20260504184019 27 214 3.2 17.7 0.00 0.00 0.00 19 1014.6
20260504183516 26 209 8.0 20.9 0.00 0.00 0.00 19 1014.8
20260504182515 27 298 6.4 17.7 0.00 0.00 0.00 18 1014.8
20260504182015 27 250 8.0 17.7 0.00 0.00 0.00 18 1015.0
20260504181531 27 269 3.2 25.7 0.00 0.00 0.00 19 1014.9
20260504181026 26 239 11.3 25.7 0.00 0.00 0.00 19 1014.9
20260504180522 27 318 9.7 22.5 0.00 0.00 0.00 20 1015.0
20260504180030 26 277 8.0 19.3 0.00 0.00 0.00 21 1015.0
20260504175513 26 280 6.4 19.3 0.00 0.00 0.00 22 1014.9
20260504175028 26 231 9.7 17.7 0.00 0.00 0.00 21 1015.0
20260504174528 26 159 3.2 9.7 0.00 0.00 0.00 24 1015.0
20260504174024 26 187 4.8 9.7 0.00 0.00 0.00 23 1015.0
20260504173520 25 104 4.8 9.7 0.00 0.00 0.00 24 1015.0
20260504173016 26 148 1.6 12.9 0.00 0.00 0.00 24 1015.0
20260504172532 25 140 1.6 14.5 0.00 0.00 0.00 24 1015.0
20260504172027 25 98 6.4 17.7 0.00 0.00 0.00 25 1014.9
20260504171523 25 155 8.0 22.5 0.00 0.00 0.00 25 1015.0
20260504171023 25 105 11.3 22.5 0.00 0.00 0.00 25 1015.0
20260504170519 25 123 6.4 17.7 0.00 0.00 0.00 26 1015.0
20260504151012 23 141 4.8 14.5 0.00 0.00 0.00 32 1014.8
20260504150528 23 176 4.8 16.1 0.00 0.00 0.00 33 1015.0
20260504141026 22 102 3.2 8.0 0.00 0.00 0.00 33 1015.0
20260504140522 22 113 1.6 4.8 0.00 0.00 0.00 34 1014.8
20260504130513 21 140 3.2 14.5 0.00 0.00 0.00 34 1014.1
20260504110525 22 206 3.2 9.7 0.00 0.00 0.00 32 1013.5
20260504100528 22 206 4.8 20.9 0.00 0.00 0.00 32 1013.5
20260504081522 22 159 0.0 4.8 0.00 0.00 0.00 33 1013.2
20260504081022 22 159 1.6 4.8 0.00 0.00 0.00 33 1013.1
20260504080518 22 149 0.0 4.8 0.00 0.00 0.00 33 1013.1
20260504050521 24 238 6.4 19.3 0.00 0.00 0.00 27 1014.0
20260504045530 24 227 4.8 17.7 0.00 0.00 0.00 27 1014.0
20260504045026 24 235 4.8 17.7 0.00 0.00 0.00 26 1013.8
20260504044521 24 215 9.7 17.7 0.00 0.00 0.00 27 1013.9
20260504044017 24 213 3.2 9.7 0.00 0.00 0.00 27 1014.0
20260504043517 24 239 1.6 9.7 0.00 0.00 0.00 26 1014.0
20260504043013 24 230 0.0 4.8 0.00 0.00 0.00 26 1014.0
20260504042528 24 229 1.6 8.0 0.00 0.00 0.00 26 1013.9
20260504042024 24 131 3.2 11.3 0.00 0.00 0.00 26 1013.8
20260504041520 25 229 1.6 17.7 0.00 0.00 0.00 25 1013.9
20260504041016 25 221 1.6 17.7 0.00 0.00 0.00 25 1013.9
20260504040512 25 221 6.4 14.5 0.00 0.00 0.00 25 1014.0
20260504040040 25 227 3.2 17.7 0.00 0.00 0.00 24 1013.8
20260504035525 25 210 4.8 17.7 0.00 0.00 0.00 24 1013.5
20260504035022 25 208 6.4 17.7 0.00 0.00 0.00 24 1013.2
20260504034518 25 217 6.4 22.5 0.00 0.00 0.00 23 1013.1
20260504034012 25 217 11.3 25.7 0.00 0.00 0.00 23 1013.1
20260504033528 25 238 9.7 24.1 0.00 0.00 0.00 22 1013.0
20260504033025 25 262 11.3 29.0 0.00 0.00 0.00 22 1012.8
20260504032521 25 190 12.9 41.8 0.00 0.00 0.00 21 1012.8
20260504032020 25 211 9.7 41.8 0.00 0.00 0.00 21 1012.8
20260504031516 26 210 16.1 35.4 0.00 0.00 0.00 20 1012.7
20260504031011 26 26 16.1 32.2 0.00 0.00 0.00 20 1012.5
20260504030527 26 286 11.3 35.4 0.00 0.00 0.00 19 1012.3
20260504030035 26 266 12.9 32.2 0.00 0.00 0.00 19 1012.1
20260504025516 26 217 14.5 32.2 0.00 0.00 0.00 18 1012.1
20260504025012 26 221 11.3 30.6 0.00 0.00 0.00 18 1011.7
20260504024512 26 196 11.3 24.1 0.00 0.00 0.00 17 1011.7
20260504024027 26 217 14.5 24.1 0.00 0.00 0.00 17 1011.7
20260504023523 27 200 11.3 29.0 0.00 0.00 0.00 16 1011.6
20260504023019 27 219 11.3 29.0 0.00 0.00 0.00 16 1011.5
20260504022515 27 216 9.7 24.1 0.00 0.00 0.00 16 1011.4
20260504022031 27 243 9.7 24.1 0.00 0.00 0.00 16 1011.4
20260504021526 27 224 14.5 32.2 0.00 0.00 0.00 16 1011.3
20260504021026 27 250 11.3 32.2 0.00 0.00 0.00 15 1011.2
20260504020522 27 225 11.3 29.0 0.00 0.00 0.00 15 1011.2
20260504020029 27 226 11.3 32.2 0.00 0.00 0.00 15 1010.9
20260504015530 27 227 11.3 32.2 0.00 0.00 0.00 14 1011.1
20260504015026 28 213 9.7 30.6 0.00 0.00 0.00 14 1010.9
20260504014522 28 236 14.5 32.2 0.00 0.00 0.00 14 1010.8
20260504014017 28 225 17.7 32.2 0.00 0.00 0.00 13 1010.8
20260504013517 28 257 16.1 32.2 0.00 0.00 0.00 13 1010.9
20260504013032 28 229 17.7 32.2 0.00 0.00 0.00 13 1010.8
20260504012528 28 266 12.9 27.4 0.00 0.00 0.00 13 1010.8
20260504012023 28 191 16.1 27.4 0.00 0.00 0.00 12 1010.7
20260504011519 29 208 16.1 30.6 0.00 0.00 0.00 12 1010.7
20260504011016 29 186 14.5 30.6 0.00 0.00 0.00 12 1010.6
20260504010532 30 203 16.1 25.7 0.00 0.00 0.00 12 1010.9
20260504010039 30 234 8.0 22.5 0.00 0.00 0.00 11 1010.9
20260504005525 30 238 12.9 24.1 0.00 0.00 0.00 11 1011.0
20260504005021 30 208 11.3 25.7 0.00 0.00 0.00 11 1011.0
20260504004518 30 220 14.5 25.7 0.00 0.00 0.00 11 1011.1
20260504004013 30 208 16.1 25.7 0.00 0.00 0.00 11 1011.1
20260504003529 30 198 8.0 35.4 0.00 0.00 0.00 11 1011.1
20260504003025 30 219 11.3 35.4 0.00 0.00 0.00 11 1011.0
20260504002521 30 205 11.3 29.0 0.00 0.00 0.00 10 1010.9
20260504002021 31 206 11.3 29.0 0.00 0.00 0.00 11 1010.9
20260504001517 31 273 12.9 29.0 0.00 0.00 0.00 10 1010.9
20260504001013 31 183 12.9 35.4 0.00 0.00 0.00 10 1011.0
20260504000529 31 213 14.5 35.4 0.00 0.00 0.00 10 1010.7
20260504000037 31 235 19.3 32.2 0.00 0.00 0.00 10 1010.8
20260503235518 31 223 11.3 30.6 0.00 0.00 0.00 10 1010.8
20260503235014 31 255 12.9 32.2 0.00 0.00 0.00 10 1010.8
20260503234514 31 267 12.9 32.2 0.00 0.00 0.00 10 1010.9
20260503234029 31 204 12.9 25.7 0.00 0.00 0.00 10 1010.8
20260503233525 32 215 12.9 29.0 0.00 0.00 0.00 10 1010.5
20260503233021 32 233 11.3 29.0 0.00 0.00 0.00 10 1010.5
20260503232517 31 272 16.1 30.6 0.00 0.00 0.00 10 1010.4
20260503232033 32 281 14.5 32.2 0.00 0.00 0.00 10 1010.5
20260503231528 32 258 14.5 40.2 0.00 0.00 0.00 10 1010.6
20260503231028 32 215 17.7 33.8 0.00 0.00 0.00 11 1010.4
20260503230524 32 260 11.3 27.4 0.00 0.00 0.00 11 1010.4
20260503230031 32 223 12.9 25.7 0.00 0.00 0.00 11 1010.4
20260503225533 32 232 12.9 25.7 0.00 0.00 0.00 10 1010.5
20260503225029 33 260 6.4 29.0 0.00 0.00 0.00 11 1010.6
20260503224525 32 209 14.5 29.0 0.00 0.00 0.00 11 1010.9
20260503224021 32 164 12.9 24.1 0.00 0.00 0.00 12 1010.9
20260503223520 32 196 11.3 24.1 0.00 0.00 0.00 12 1010.9
20260503223016 32 180 4.8 22.5 0.00 0.00 0.00 12 1010.8
20260503222532 33 233 12.9 27.4 0.00 0.00 0.00 12 1011.2
20260503222027 33 224 9.7 27.4 0.00 0.00 0.00 13 1011.2
20260503221523 33 223 9.7 27.4 0.00 0.00 0.00 11 1011.2
20260503221019 32 210 12.9 27.4 0.00 0.00 0.00 12 1011.0
20260503220032 33 225 12.9 32.2 0.00 0.00 0.00 12 1010.9
20260503215513 32 90 6.4 16.1 0.00 0.00 0.00 14 1010.8
20260503215029 32 155 4.8 9.7 0.00 0.00 0.00 13 1010.9
20260503214525 31 159 1.6 14.5 0.00 0.00 0.00 14 1011.1
20260503214020 32 83 4.8 14.5 0.00 0.00 0.00 14 1011.2
20260503213516 32 115 6.4 17.7 0.00 0.00 0.00 14 1011.4
20260503212527 32 120 16.1 27.4 0.00 0.00 0.00 14 1011.8
20260503212026 32 116 9.7 25.7 0.00 0.00 0.00 15 1011.6
20260503211522 31 118 12.9 25.7 0.00 0.00 0.00 16 1011.8
20260503211018 31 144 9.7 20.9 0.00 0.00 0.00 17 1011.9
20260503210514 31 75 6.4 20.9 0.00 0.00 0.00 20 1012.1
20260503210041 31 104 8.0 17.7 0.00 0.00 0.00 20 1012.2
20260503205522 31 108 6.4 25.7 0.00 0.00 0.00 20 1012.4
20260503205018 30 145 8.0 25.7 0.00 0.00 0.00 21 1012.3
20260503204518 30 127 8.0 20.9 0.00 0.00 0.00 21 1012.3
20260503204015 30 130 9.7 16.1 0.00 0.00 0.00 21 1012.4
20260503203531 30 140 6.4 17.7 0.00 0.00 0.00 21 1012.4
20260503203026 30 129 8.0 17.7 0.00 0.00 0.00 22 1012.4
20260503202522 30 112 4.8 12.9 0.00 0.00 0.00 22 1012.5
20260503202018 30 154 4.8 14.5 0.00 0.00 0.00 22 1012.7
20260503201514 29 169 1.6 14.5 0.00 0.00 0.00 23 1012.6
20260503201014 28 131 4.8 22.5 0.00 0.00 0.00 24 1012.8
20260503200528 29 98 12.9 24.1 0.00 0.00 0.00 24 1012.8
20260503200036 30 96 14.5 24.1 0.00 0.00 0.00 21 1012.9
20260503195518 30 129 6.4 12.9 0.00 0.00 0.00 22 1013.0
20260503195013 29 220 1.6 14.5 0.00 0.00 0.00 22 1013.0
20260503194530 30 137 3.2 19.3 0.00 0.00 0.00 22 1013.2
20260503194026 29 119 4.8 19.3 0.00 0.00 0.00 25 1013.2
20260503193525 28 159 8.0 19.3 0.00 0.00 0.00 25 1013.3